Overview Statistics Trail Chart Weather Telemetry Raw packets
 

This is the latest recevied weather packets stored in our database for station/object KM8V-8. If no packets are shown the sender has not sent any weather packets the latest 10 day(s).

<< 26 27 28 29 30 31 32 >>
Time Temp. Humidity Pressure Rain* Wind** Luminosity Snow
1777637720 6.11° C 95% 1012.8 hPa 1.27 mm - 30 W/m² -
1777637423 6.11° C 95% 1012.9 hPa 1.27 mm - 24 W/m² -
1777637124 6.11° C 94% 1012.7 hPa 1.27 mm - 28 W/m² -
1777636825 6.11° C 94% 1012.7 hPa 1.02 mm - 25 W/m² -
1777636524 6.11° C 94% 1012.6 hPa 1.02 mm - 22 W/m² -
1777636219 6.11° C 94% 1012.4 hPa 1.02 mm - 27 W/m² -
1777635918 6.11° C 94% 1012.4 hPa 1.02 mm - 30 W/m² -
1777635621 6.11° C 94% 1012.4 hPa 1.02 mm - 23 W/m² -
1777635321 6.11° C 93% 1012.5 hPa 1.02 mm - 16 W/m² -
1777635021 6.11° C 93% 1012.5 hPa 0.76 mm - 22 W/m² -
1777634722 6.11° C 93% 1012.7 hPa 0.76 mm - 17 W/m² -
1777634421 6.11° C 93% 1012.7 hPa 0.51 mm - 10 W/m² -
1777634121 6.11° C 93% 1012.7 hPa 0.25 mm - 9 W/m² -
1777633821 6.11° C 93% 1012.7 hPa 0 mm - 9 W/m² -
1777633521 6.11° C 93% 1012.6 hPa 0 mm - 16 W/m² -
1777633222 6.11° C 93% 1012.5 hPa 0 mm - 19 W/m² -
1777632922 6.11° C 93% 1012.5 hPa 0 mm - 14 W/m² -
1777632622 6.11° C 93% 1012.4 hPa 0 mm - 8 W/m² -
1777632322 6.11° C 93% 1012.4 hPa 0.25 mm - 6 W/m² -
1777632022 6.11° C 93% 1012.4 hPa 0.25 mm - 5 W/m² -
1777631722 6.11° C 92% 1012.5 hPa 0.25 mm - 5 W/m² -
1777631422 6.11° C 92% 1012.5 hPa 0.25 mm - 3 W/m² -
1777631122 6.11° C 92% 1012.5 hPa 0.25 mm - 1 W/m² -
1777630822 6.11° C 92% 1012.5 hPa 0.25 mm - 1 W/m² -
1777630522 6.11° C 92% 1012.5 hPa 0.76 mm - 0 W/m² -

* Rain latest hour (hover to see other rain measurements)
** Current wind speed in m/s (hover to see current wind gust speed)